CZ-6A DEB, 60866

Orbit data source: Space-Track

CZ-6A DEB, 60866 is space debris in LEO originally from a launch on Tue, 06 Aug 2024 UTC launched from the Taiyaun Space Center, China (TSC). Debris objects in space refer to the collection of defunct objects orbiting the Earth. Examples of debris include non-operational satellites, rocket bodies, and fragments generated from explosions, collisions, or faulty payload assembly.

Loading next visibility...
Identifier
60866, 2024-140JV
Orbit
LEO
Country
Flag of CNCN / PRC
Related business
Manufacturer
SAST
Mission
Spacecraft
Bus & Motor
Unknown
Mass
Unknown
Launch date (UTC)
2024-08-06 (1 year ago)
Launch vehicle
Unknown
Launch site
Taiyaun Space Center, China (TSC)
Object type
Payload
Rocket body
Debris
Shape & HBR
Unknown shape, 0.2 m
Radar Cross Section
Small (<0.1 m²)

Expand to show TLE details & history
Last TLE update: 11 hours ago

TLE from 11 hours ago
0 CZ-6A DEB
1 60866U 24140JV  25352.81726951  .00001455  00000-0  29651-3 0  9994
2 60866  88.9427 288.1198 0112492 172.3296 187.9670 14.56485601 71288
Epoch: 2025-12-18T19:36Z
TLE epoch observation values (Epoch: 2025-12-18T19:36:52.085Z)
Latitude
-0.00004°
Longitude
-93.76456°
Altitude
786.59 km
Speed
7.419 km/s
True Right ascension
19h 12m 28s
True Declination
0° 00' 00"
Sunlit
Object was in daylight at epoch
Visualization orbit readout
Latitude
Unknown
Longitude
Unknown
Altitude
Unknown
Speed
Unknown
Apparent Right ascension
Unknown
Apparent Declination
Unknown
Sunlit
N/A
Visualization observer readout
Local Sidereal Time
05:01:35
Azimuth
Unknown
Elevation
Unknown
Doppler factor
Unknown
Orbital elements
Apogee altitude
781.083 km
Perigee altitude
621.804 km
Semi-major axis
7,079.58 km
Eccentricity
0.01125
Inclination
88.9427°
RAAN
288.1198°
Arg. of periapsis
172.3296°
True anomaly
187.79079°
Mean anomaly
187.967°
Eccentric anomaly
187.87865°
Mean motion
3.64361 °/min
Orbital period
98.8 mins
BSTAR
0.00029651
Loading maneuver chart data...
Computing Atmospheric mass density...

Documentation

Showing up to 5 results
|